EA3KZ-1 Weather Reports


Display with metric or nautical units.
time (UTC)temp
F
wind
direction
speed
MPH
gust
MPH
rain 1hr
in
rain 24hr
in
rain mn
in
humidity
%
barometer
mb
20260507224602 55 263 1.0 2.0 0.00 0.00 0.00 86 1009.5
20260507223559 56 0.0 0.0 0.00 0.00 0.00 86 1009.5
20260507222557 56 273 1.0 2.0 0.00 0.00 0.00 86 1009.6
20260507221554 56 226 2.0 4.0 0.00 0.00 0.00 86 1009.6
20260507220551 56 232 2.0 4.0 0.00 0.00 0.00 86 1009.6
20260507215549 56 230 3.0 6.0 0.00 0.00 0.00 85 1009.7
20260507214546 56 270 2.0 4.0 0.00 0.00 0.00 85 1009.7
20260507213544 56 270 0.0 2.0 0.00 0.00 0.00 85 1009.6
20260507212541 56 287 2.0 2.0 0.00 0.00 0.00 85 1009.7
20260507211538 57 285 2.0 2.0 0.00 0.00 0.00 85 1009.6
20260507210536 57 304 1.0 2.0 0.00 0.00 0.00 85 1009.7
20260507205533 57 58 1.0 2.0 0.00 0.00 0.00 84 1009.7
20260507204530 57 146 0.0 2.0 0.00 0.00 0.00 84 1009.6
20260507203528 57 94 1.0 2.0 0.00 0.00 0.00 84 1009.6
20260507202525 57 90 0.0 2.0 0.00 0.00 0.00 83 1009.5
20260507201523 58 32 1.0 2.0 0.00 0.00 0.00 82 1009.5
20260507200520 58 0.0 2.0 0.00 0.00 0.00 82 1009.3
20260507195517 58 30 0.0 2.0 0.00 0.00 0.00 81 1009.2
20260507194515 58 28 1.0 2.0 0.00 0.00 0.00 81 1009.0
20260507193612 58 350 2.0 6.0 0.00 0.00 0.00 80 1008.8
20260507192610 58 34 2.0 4.0 0.00 0.00 0.00 79 1008.6
20260507191607 58 97 1.0 4.0 0.00 0.00 0.00 79 1008.7
20260507190605 58 72 1.0 4.0 0.00 0.00 0.00 81 1008.5
20260507185602 58 348 1.0 4.0 0.00 0.00 0.00 81 1008.2
20260507184559 59 37 1.0 4.0 0.00 0.00 0.00 80 1008.2
20260507183557 59 153 2.0 6.0 0.00 0.00 0.00 79 1008.2
20260507182554 59 48 2.0 6.0 0.00 0.00 0.00 78 1008.0
20260507181552 60 96 2.0 4.0 0.00 0.00 0.00 78 1007.9
20260507180549 60 209 4.0 7.0 0.00 0.00 0.00 77 1007.8
20260507175546 61 113 2.0 4.0 0.00 0.00 0.00 75 1007.7
20260507174544 60 32 5.0 9.0 0.00 0.00 0.00 74 1007.7
20260507173541 61 128 2.0 6.0 0.00 0.00 0.00 74 1007.6
20260507172538 61 161 1.0 4.0 0.00 0.00 0.00 73 1007.6
20260507171536 62 86 3.0 9.0 0.00 0.00 0.00 71 1007.5
20260507170533 62 77 2.0 6.0 0.00 0.00 0.00 71 1007.3
20260507165531 61 28 4.0 9.0 0.00 0.00 0.00 71 1007.4
20260507164528 62 8 3.0 7.0 0.00 0.00 0.00 69 1007.4
20260507163526 62 48 4.0 11.0 0.00 0.00 0.00 70 1007.3
20260507162523 63 102 3.0 11.0 0.00 0.00 0.00 70 1007.3
20260507161520 63 356 4.0 11.0 0.00 0.00 0.00 68 1007.4
20260507160518 63 63 4.0 11.0 0.00 0.00 0.00 68 1007.3
20260507155515 62 47 5.0 11.0 0.00 0.00 0.00 68 1007.4
20260507154613 64 131 3.0 8.0 0.00 0.00 0.00 64 1007.4
20260507153610 65 118 4.0 11.0 0.00 0.00 0.00 62 1007.3
20260507152608 65 65 2.0 7.0 0.00 0.00 0.00 62 1007.3
20260507151605 64 34 4.0 7.0 0.00 0.00 0.00 63 1007.3
20260507150602 66 21 2.0 8.0 0.00 0.00 0.00 61 1007.4
20260507145600 64 91 4.0 8.0 0.00 0.00 0.00 62 1007.6
20260507144557 65 62 4.0 11.0 0.00 0.00 0.00 62 1007.7
20260507143555 64 70 4.0 8.0 0.00 0.00 0.00 64 1007.6
20260507142552 66 146 2.0 6.0 0.00 0.00 0.00 62 1008.0
20260507141549 65 338 3.0 9.0 0.00 0.00 0.00 63 1007.8
20260507140547 64 346 4.0 8.0 0.00 0.00 0.00 64 1007.9
20260507135544 66 128 2.0 7.0 0.00 0.00 0.00 61 1007.9
20260507134542 64 55 5.0 11.0 0.00 0.00 0.00 64 1008.1
20260507133539 64 342 7.0 17.0 0.00 0.00 0.00 64 1008.1
20260507132536 65 77 6.0 15.0 0.00 0.00 0.00 64 1008.1
20260507131534 64 46 5.0 11.0 0.00 0.00 0.00 67 1008.3
20260507130531 66 2 5.0 15.0 0.00 0.00 0.00 64 1008.4
20260507125529 66 60 5.0 15.0 0.00 0.00 0.00 64 1008.5
20260507124526 65 198 4.0 11.0 0.00 0.00 0.00 65 1008.5
20260507123523 66 197 4.0 13.0 0.00 0.00 0.00 64 1008.4
20260507122521 66 47 6.0 14.0 0.00 0.00 0.00 65 1008.4
20260507121518 67 118 3.0 8.0 0.00 0.00 0.00 62 1008.6
20260507120515 66 15 7.0 16.0 0.00 0.00 0.00 64 1008.5
20260507115613 67 164 3.0 9.0 0.00 0.00 0.00 62 1008.6
20260507114610 66 331 4.0 9.0 0.00 0.00 0.00 64 1008.6
20260507113608 65 42 5.0 11.0 0.00 0.00 0.00 66 1008.7
20260507112605 65 82 3.0 8.0 0.00 0.00 0.00 66 1008.8
20260507111603 65 163 2.0 6.0 0.00 0.00 0.00 66 1008.9
20260507110600 65 80 3.0 9.0 0.00 0.00 0.00 66 1009.0
20260507105557 67 141 2.0 8.0 0.00 0.00 0.00 63 1009.1
20260507104555 67 173 2.0 7.0 0.00 0.00 0.00 61 1009.2
20260507103552 66 52 2.0 4.0 0.00 0.00 0.00 61 1009.3
20260507102550 66 127 2.0 7.0 0.00 0.00 0.00 61 1009.5
20260507101547 67 161 2.0 4.0 0.00 0.00 0.00 61 1009.4
20260507100545 66 38 2.0 7.0 0.00 0.00 0.00 62 1009.4
20260507095542 66 84 2.0 4.0 0.00 0.00 0.00 64 1009.6
20260507094539 63 1 5.0 9.0 0.00 0.00 0.00 69 1009.6
20260507093537 61 0 1.0 2.0 0.00 0.00 0.00 71 1009.8
20260507092534 61 12 2.0 4.0 0.00 0.00 0.00 71 1009.7
20260507091532 63 0 1.0 4.0 0.00 0.00 0.00 69 1009.5
20260507090559 61 144 1.0 4.0 0.00 0.00 0.00 72 1009.4
20260507085556 62 94 3.0 6.0 0.00 0.00 0.00 70 1009.5
20260507084554 61 36 3.0 8.0 0.00 0.00 0.00 72 1009.5
20260507083551 60 71 3.0 7.0 0.00 0.00 0.00 73 1009.5
20260507082548 61 46 2.0 6.0 0.00 0.00 0.00 72 1009.6
20260507081546 60 12 3.0 11.0 0.00 0.00 0.00 75 1009.6
20260507080543 60 89 2.0 4.0 0.00 0.00 0.00 78 1009.7
20260507075541 60 78 0.0 2.0 0.00 0.00 0.00 79 1009.8
20260507074538 58 55 1.0 4.0 0.00 0.00 0.00 82 1009.8
20260507073535 57 342 3.0 6.0 0.00 0.00 0.00 81 1009.7
20260507072533 57 359 2.0 6.0 0.00 0.00 0.00 80 1009.9
20260507071530 57 3 1.0 4.0 0.00 0.00 0.00 79 1009.8
20260507070528 58 99 1.0 4.0 0.00 0.00 0.00 78 1009.6
20260507065525 58 110 0.0 4.0 0.00 0.00 0.00 76 1009.5
20260507064522 59 45 0.0 2.0 0.00 0.00 0.00 74 1009.3
20260507063520 58 346 2.0 4.0 0.00 0.00 0.00 75 1009.3
20260507062517 59 81 1.0 2.0 0.00 0.00 0.00 74 1009.0
20260507061515 58 30 1.0 4.0 0.00 0.00 0.00 76 1009.0
20260507060612 56 296 2.0 4.0 0.00 0.00 0.00 78 1008.9
20260507055609 56 274 1.0 4.0 0.00 0.00 0.00 79 1008.9
20260507054607 56 276 1.0 2.0 0.00 0.00 0.00 79 1008.9
20260507053604 56 281 0.0 2.0 0.00 0.00 0.00 80 1008.8
20260507052602 55 0.0 0.0 0.00 0.00 0.00 82 1008.6
20260507051559 54 287 1.0 4.0 0.00 0.00 0.00 83 1008.5
20260507050557 53 282 1.0 4.0 0.00 0.00 0.00 85 1008.5
20260507045554 53 260 0.0 2.0 0.00 0.00 0.00 85 1008.5
20260507044551 53 315 0.0 2.0 0.00 0.00 0.00 85 1008.4
20260507043549 53 290 1.0 4.0 0.00 0.00 0.00 86 1008.5
20260507042546 53 268 1.0 4.0 0.00 0.00 0.00 86 1008.5
20260507041544 52 285 0.0 2.0 0.00 0.00 0.00 86 1008.4
20260507040541 52 0.0 0.0 0.00 0.00 0.00 86 1008.5
20260507035538 52 0.0 2.0 0.00 0.00 0.00 86 1008.5
20260507034536 53 256 1.0 2.0 0.00 0.00 0.00 86 1008.4
20260507033533 53 0.0 0.0 0.00 0.00 0.00 86 1008.5
20260507032531 52 0.0 0.0 0.00 0.00 0.00 86 1008.6
20260507031528 53 0.0 2.0 0.00 0.00 0.00 86 1008.8
20260507030525 53 0.0 0.0 0.00 0.00 0.00 86 1008.7
20260507025523 53 282 1.0 4.0 0.00 0.00 0.00 85 1008.5
20260507024520 53 278 3.0 4.0 0.00 0.00 0.00 85 1008.6
20260507023518 53 281 3.0 4.0 0.00 0.00 0.00 85 1008.4
20260507022515 53 280 3.0 4.0 0.00 0.00 0.00 85 1008.5
20260507021613 53 284 3.0 4.0 0.00 0.00 0.00 85 1008.5
20260507020610 53 289 3.0 6.0 0.00 0.00 0.00 85 1008.6
20260507015607 54 295 3.0 4.0 0.00 0.00 0.00 85 1008.7
20260507014605 54 265 3.0 4.0 0.00 0.00 0.00 85 1008.8
20260507013602 53 297 3.0 4.0 0.00 0.00 0.00 86 1008.8
20260507012600 53 294 3.0 4.0 0.00 0.00 0.00 86 1008.7
20260507011557 53 295 4.0 6.0 0.00 0.00 0.00 86 1008.7
20260507010554 53 296 4.0 6.0 0.00 0.00 0.00 87 1008.9
20260507005552 53 293 4.0 6.0 0.00 0.00 0.00 87 1008.9
20260507004549 53 286 4.0 6.0 0.00 0.00 0.00 87 1009.0
20260507003547 53 301 4.0 7.0 0.00 0.00 0.00 88 1009.0
20260507002544 53 296 4.0 6.0 0.00 0.00 0.00 88 1009.0
20260507001541 53 288 3.0 7.0 0.00 0.00 0.00 88 1009.2
20260507000539 53 293 5.0 7.0 0.00 0.00 0.00 88 1009.1
20260506235536 53 307 4.0 7.0 0.00 0.00 0.00 88 1009.2
20260506234534 54 294 5.0 8.0 0.00 0.00 0.00 89 1009.1
20260506233531 54 280 4.0 8.0 0.00 0.00 0.00 89 1009.2
20260506232529 54 296 5.0 7.0 0.00 0.00 0.00 89 1009.3
20260506231526 54 303 5.0 7.0 0.00 0.00 0.00 89 1009.3
20260506230523 54 293 5.0 8.0 0.00 0.00 0.00 88 1009.3
20260506225521 54 290 5.0 7.0 0.00 0.00 0.00 87 1009.3